Location: *
(43.9900°N, 3.4811°E)
Time: 04:41:25
(UTC+00:00)

GP-B - Pass Details

Date: 25 August 2019
Orbit: 631 x 636 km, 89.8° (Epoch: 22 September)

Event Time Altitude Azimuth Distance (km) Brightness Sun altitude
Rises 20:10:01 0° 5° (N) 2,939 6.9 -16.4°
Reaches altitude 10° 20:12:16 10° 8° (N) 2,026 6.0 -16.7°
Maximum altitude 20:16:41 62° 90° (E) 714 3.1 -17.4°
Enters shadow 20:18:49 29° 161° (SSE) 1,164 4.0 -17.7°
